TimeEST,TemperatureF,Dew PointF,Humidity,Sea Level PressureIn,VisibilityMPH,Wind Direction,Wind SpeedMPH,Gust SpeedMPH,PrecipitationIn,Events,Conditions,WindDirDegrees,DateUTC
12:15 AM,57.2,-9999,N/A,30.15,7.0,Calm,Calm,-,N/A,,Clear,0,2012-12-15 05:15:00
12:35 AM,57.2,-9999,N/A,30.13,7.0,Calm,Calm,-,N/A,,Clear,0,2012-12-15 05:35:00
12:55 AM,57.2,-9999,N/A,30.13,5.0,North,3.5,-,N/A,,Haze,360,2012-12-15 05:55:00
1:15 AM,57.2,-9999,N/A,30.12,5.0,Calm,Calm,-,N/A,,Haze,0,2012-12-15 06:15:00
1:35 AM,57.2,-9999,N/A,30.13,4.0,Calm,Calm,-,N/A,,Haze,0,2012-12-15 06:35:00
1:55 AM,55.4,-9999,N/A,30.13,5.0,North,3.5,-,N/A,,Haze,10,2012-12-15 06:55:00
2:15 AM,55.4,-9999,N/A,30.13,5.0,North,3.5,-,N/A,,Haze,10,2012-12-15 07:15:00
2:35 AM,55.4,-9999,N/A,30.13,5.0,Calm,Calm,-,N/A,,Haze,0,2012-12-15 07:35:00
2:55 AM,55.4,-9999,N/A,30.14,5.0,North,3.5,-,N/A,,Haze,10,2012-12-15 07:55:00
3:15 AM,57.2,-9999,N/A,30.14,5.0,North,4.6,-,N/A,,Haze,10,2012-12-15 08:15:00
3:35 AM,57.2,-9999,N/A,30.14,5.0,NNE,4.6,-,N/A,,Haze,20,2012-12-15 08:35:00
3:55 AM,57.2,-9999,N/A,30.14,2.0,NE,4.6,-,N/A,,Overcast,50,2012-12-15 08:55:00
4:15 AM,57.2,-9999,N/A,30.13,1.2,NE,3.5,-,N/A,,Overcast,40,2012-12-15 09:15:00
4:35 AM,57.2,-9999,N/A,30.12,0.8,NE,3.5,-,N/A,,Overcast,50,2012-12-15 09:35:00
4:55 AM,57.2,-9999,N/A,30.11,0.5,ENE,5.8,-,N/A,Fog,Fog,60,2012-12-15 09:55:00
5:15 AM,57.2,-9999,N/A,30.11,0.5,NE,3.5,-,N/A,Fog,Fog,40,2012-12-15 10:15:00
5:35 AM,57.2,-9999,N/A,30.11,0.5,ENE,4.6,-,N/A,Fog,Fog,70,2012-12-15 10:35:00
5:55 AM,57.2,-9999,N/A,30.12,0.5,Calm,Calm,-,N/A,Fog,Fog,0,2012-12-15 10:55:00
6:15 AM,57.2,-9999,N/A,30.13,0.2,NNE,3.5,-,N/A,Fog,Fog,30,2012-12-15 11:15:00
6:35 AM,57.2,-9999,N/A,30.13,0.2,ENE,3.5,-,N/A,Fog,Fog,60,2012-12-15 11:35:00
6:55 AM,57.2,-9999,N/A,30.13,0.2,NE,3.5,-,N/A,Fog,Fog,50,2012-12-15 11:55:00
7:15 AM,59.0,-9999,N/A,30.14,0.2,NE,5.8,-,N/A,Fog,Fog,40,2012-12-15 12:15:00
7:35 AM,59.0,-9999,N/A,30.14,0.2,NE,6.9,-,N/A,Fog,Fog,40,2012-12-15 12:35:00
7:55 AM,59.0,-9999,N/A,30.16,0.2,ENE,4.6,-,N/A,Fog,Fog,60,2012-12-15 12:55:00
8:15 AM,59.0,-9999,N/A,30.18,0.2,NE,4.6,-,N/A,Fog,Fog,40,2012-12-15 13:15:00
8:35 AM,59.0,-9999,N/A,30.18,0.2,ENE,6.9,-,N/A,Fog,Fog,60,2012-12-15 13:35:00
8:55 AM,60.8,-9999,N/A,30.17,0.5,ENE,6.9,-,N/A,Fog,Fog,60,2012-12-15 13:55:00
9:15 AM,60.8,-9999,N/A,30.17,1.0,East,4.6,-,N/A,,Overcast,80,2012-12-15 14:15:00
9:35 AM,62.6,-9999,N/A,30.18,3.0,East,3.5,-,N/A,,Overcast,80,2012-12-15 14:35:00
9:55 AM,62.6,-9999,N/A,30.18,4.0,NNE,4.6,-,N/A,,Haze,30,2012-12-15 14:55:00
10:15 AM,62.6,-9999,N/A,30.19,7.0,ENE,3.5,-,N/A,,Overcast,60,2012-12-15 15:15:00
10:35 AM,64.4,-9999,N/A,30.19,7.0,NNE,4.6,-,N/A,,Overcast,20,2012-12-15 15:35:00
10:55 AM,64.4,-9999,N/A,30.19,10.0,NE,4.6,-,N/A,,Overcast,50,2012-12-15 15:55:00
11:15 AM,66.2,-9999,N/A,30.19,10.0,NE,5.8,-,N/A,,Overcast,50,2012-12-15 16:15:00
11:35 AM,68.0,-9999,N/A,30.17,10.0,NE,5.8,-,N/A,,Overcast,50,2012-12-15 16:35:00
11:55 AM,71.6,66.2,83,30.16,10.0,ENE,8.1,-,N/A,,Mostly Cloudy,60,2012-12-15 16:55:00
12:15 PM,73.4,64.4,73,30.15,10.0,NE,6.9,-,N/A,,Scattered Clouds,40,2012-12-15 17:15:00
12:35 PM,75.2,64.4,69,30.14,10.0,NE,6.9,-,N/A,,Overcast,40,2012-12-15 17:35:00
12:55 PM,77.0,62.6,61,30.12,10.0,ESE,4.6,-,N/A,,Overcast,110,2012-12-15 17:55:00
1:15 PM,77.0,62.6,61,30.12,10.0,East,5.8,-,N/A,,Overcast,100,2012-12-15 18:15:00
1:35 PM,77.0,62.6,61,30.11,10.0,East,5.8,-,N/A,,Overcast,90,2012-12-15 18:35:00
1:55 PM,77.0,62.6,61,30.10,10.0,ESE,4.6,-,N/A,,Overcast,110,2012-12-15 18:55:00
2:15 PM,77.0,62.6,61,30.09,10.0,ESE,5.8,-,N/A,,Overcast,110,2012-12-15 19:15:00
2:35 PM,78.8,60.8,54,30.09,10.0,East,5.8,-,N/A,,Overcast,100,2012-12-15 19:35:00
2:55 PM,77.0,60.8,57,30.09,10.0,East,5.8,-,N/A,,Overcast,90,2012-12-15 19:55:00
3:15 PM,78.8,60.8,54,30.08,10.0,East,5.8,-,N/A,,Mostly Cloudy,100,2012-12-15 20:15:00
3:35 PM,77.0,59.0,54,30.09,10.0,East,5.8,-,N/A,,Mostly Cloudy,90,2012-12-15 20:35:00
3:55 PM,78.8,59.0,51,30.08,10.0,East,4.6,-,N/A,,Overcast,90,2012-12-15 20:55:00
4:15 PM,77.0,59.0,54,30.08,10.0,East,5.8,-,N/A,,Overcast,100,2012-12-15 21:15:00
4:35 PM,77.0,59.0,54,30.09,10.0,East,3.5,-,N/A,,Scattered Clouds,80,2012-12-15 21:35:00
4:55 PM,75.2,60.8,61,30.08,10.0,ENE,3.5,-,N/A,,Clear,70,2012-12-15 21:55:00
5:15 PM,73.4,60.8,65,30.08,10.0,East,3.5,-,N/A,,Clear,80,2012-12-15 22:15:00
5:35 PM,73.4,60.8,65,30.09,10.0,NE,3.5,-,N/A,,Clear,50,2012-12-15 22:35:00
5:55 PM,69.8,62.6,78,30.10,10.0,ENE,3.5,-,N/A,,Scattered Clouds,60,2012-12-15 22:55:00
6:15 PM,68.0,62.6,83,30.10,10.0,Calm,Calm,-,N/A,,Scattered Clouds,0,2012-12-15 23:15:00
6:35 PM,68.0,62.6,83,30.11,10.0,Calm,Calm,-,N/A,,Clear,0,2012-12-15 23:35:00
6:55 PM,66.2,62.6,88,30.10,10.0,Calm,Calm,-,N/A,,Clear,0,2012-12-15 23:55:00
7:15 PM,64.4,64.4,100,30.10,10.0,Calm,Calm,-,N/A,,Clear,0,2012-12-16 00:15:00
7:35 PM,64.4,-9999,N/A,30.10,10.0,Calm,Calm,-,N/A,,Clear,0,2012-12-16 00:35:00
7:55 PM,62.6,-9999,N/A,30.10,10.0,East,3.5,-,N/A,,Clear,80,2012-12-16 00:55:00
8:15 PM,62.6,-9999,N/A,30.10,10.0,East,4.6,-,N/A,,Clear,80,2012-12-16 01:15:00
8:35 PM,64.4,-9999,N/A,30.10,10.0,East,4.6,-,N/A,,Clear,90,2012-12-16 01:35:00
8:55 PM,66.2,62.6,88,30.12,10.0,East,4.6,-,N/A,,Clear,90,2012-12-16 01:55:00
9:15 PM,66.2,60.8,83,30.12,10.0,East,3.5,-,N/A,,Clear,90,2012-12-16 02:15:00
9:35 PM,66.2,62.6,88,30.12,10.0,Calm,Calm,-,N/A,,Clear,0,2012-12-16 02:35:00
9:55 PM,64.4,64.4,100,30.11,10.0,ESE,4.6,-,N/A,,Clear,110,2012-12-16 02:55:00
10:15 PM,64.4,-9999,N/A,30.10,10.0,ESE,4.6,-,N/A,,Clear,110,2012-12-16 03:15:00
10:35 PM,64.4,-9999,N/A,30.11,10.0,East,3.5,-,N/A,,Clear,100,2012-12-16 03:35:00
10:55 PM,64.4,-9999,N/A,30.09,10.0,East,4.6,-,N/A,,Clear,100,2012-12-16 03:55:00
11:15 PM,64.4,-9999,N/A,30.09,10.0,ESE,3.5,-,N/A,,Clear,110,2012-12-16 04:15:00
11:35 PM,64.4,-9999,N/A,30.10,10.0,ESE,3.5,-,N/A,,Clear,120,2012-12-16 04:35:00
11:55 PM,64.4,-9999,N/A,30.10,10.0,Calm,Calm,-,N/A,,Clear,0,2012-12-16 04:55:00